Location: Czekanka
(50.4925°N, 19.2643°E)
Time: 13:38:30
(UTC+00:00)

Cosmos 1603 - Pass Details

Date: 15 June 2024
Orbit: 829 x 860 km, 71.0° (Epoch: 16 July)

Event Time Altitude Azimuth Distance (km) Brightness Sun altitude
Rises 01:36:01 0° 326° (NNW) 3,448 7.1 -6.9°
Reaches altitude 10° 01:38:35 10° 321° (NW) 2,507 6.3 -6.7°
Maximum altitude 01:44:00 44° 251° (WSW) 1,177 4.1 -6.1°
Drops below altitude 10° 01:49:22 10° 181° (S) 2,481 5.7 -5.6°
Sets 01:51:54 0° 175° (S) 3,409 6.4 -5.3°
